Farmington, NM

2:13 PM MDT on July 25, 2017 (GMT -0600)
Four Corners Regional

Weather History for KFMN - February, 2012

Change the Weather History Date:

Sunday, February 5, 2012

  Actual Average Record
Temperature  
Mean Temperature 36 °F -  
Max Temperature 43 °F 44 °F 61 °F (2009)
Min Temperature 30 °F 20 °F 1 °F (1985)
Degree Days  
Heating Degree Days 28    
Moisture  
Dew Point 27 °F    
Average Humidity 76    
Maximum Humidity 96    
Minimum Humidity 47    
Precipitation  
Precipitation 0.03 in - - ()
Sea Level Pressure  
Sea Level Pressure 30.24 in    
Wind  
Wind Speed 12 mph (East)    
Max Wind Speed 16 mph    
Max Gust Speed 28 mph    
Visibility 7 miles    
Events Snow    
Averages and records for this station are not official NWS values.
T = Trace of Precipitation, MM = Missing Value Source: NWS Daily Summary

Daily Weather History Graph

Daily Weather History Graph

Search for Another Location

Airport or City:

Trip Planner

Search our weather history database for the weather conditions in past years. The results will help you decide how hot, cold, wet, or windy it might be!

Date:

Astronomy

Feb. 05, 2012 Rise Set
Actual Time 7:11 AM MST 5:42 PM MST
Civil Twilight 6:44 AM MST 6:09 PM MST
Nautical Twilight 6:14 AM MST 6:40 PM MST
Astronomical Twilight 5:43 AM MST 7:10 PM MST
Moon 3:46 PM MST (2/5) 5:22 AM MST (2/5)
Length of Visible Light 11h 24m
Length of Day
10h 30m
Waxing Gibbous, 95% of the Moon is Illuminated
Feb 5
Waxing Gibbous
Feb 7
Full
Feb 14
Last Quarter
Feb 21
New
Feb 29
First Quarter

Hourly Weather History & Observations

Time (MST) Temp. Windchill Dew Point Humidity Pressure Visibility Wind Dir Wind Speed Gust Speed Precip Events Conditions
12:53 AM 36.0 °F 26.7 °F 21.9 °F 57% 30.27 in 10.0 mi SE 15.0 mph 27.6 mph N/A   Overcast
1:53 AM 35.1 °F 27.4 °F 23.0 °F 61% 30.27 in 10.0 mi ESE 10.4 mph - N/A   Overcast
2:28 AM 33.8 °F 23.9 °F 26.6 °F 75% 30.27 in 2.5 mi ESE 15.0 mph - 0.00 in Snow Light Snow
2:53 AM 32.0 °F 22.5 °F 28.0 °F 85% 30.28 in 1.8 mi East 12.7 mph - 0.00 in Snow Light Snow
3:06 AM 30.2 °F 20.8 °F 28.4 °F 93% 30.26 in 1.8 mi East 11.5 mph - 0.01 in Snow Light Snow
3:32 AM 30.2 °F 21.3 °F 28.4 °F 93% 30.26 in 2.0 mi East 10.4 mph - 0.02 in Snow Light Snow
3:48 AM 30.2 °F 21.9 °F 28.4 °F 93% 30.26 in 1.2 mi East 9.2 mph - 0.02 in Snow Light Snow
3:53 AM 30.0 °F 21.7 °F 28.9 °F 96% 30.28 in 1.2 mi ENE 9.2 mph - 0.03 in Snow Light Snow
4:05 AM 30.2 °F 21.3 °F 28.4 °F 93% 30.26 in 2.0 mi ENE 10.4 mph - 0.00 in Snow Light Snow
4:15 AM 30.2 °F 21.3 °F 28.4 °F 93% 30.25 in 3.0 mi ENE 10.4 mph - 0.00 in Snow Light Snow
4:53 AM 30.0 °F 21.1 °F 28.0 °F 92% 30.28 in 7.0 mi East 10.4 mph - 0.00 in Snow Light Snow
5:53 AM 30.9 °F 21.7 °F 28.0 °F 89% 30.29 in 10.0 mi East 11.5 mph - 0.00 in   Overcast
6:53 AM 30.0 °F 21.1 °F 28.0 °F 92% 30.31 in 9.0 mi East 10.4 mph - 0.00 in Snow Light Snow
7:53 AM 30.0 °F 20.0 °F 27.0 °F 88% 30.32 in 10.0 mi ENE 12.7 mph - 0.00 in   Overcast
8:53 AM 30.9 °F 21.7 °F 27.0 °F 85% 30.32 in 9.0 mi East 11.5 mph - 0.00 in   Overcast
9:53 AM 33.1 °F 24.9 °F 27.0 °F 78% 30.32 in 10.0 mi East 10.4 mph - N/A   Overcast
10:53 AM 37.0 °F 29.3 °F 27.0 °F 67% 30.32 in 10.0 mi ESE 11.5 mph - N/A   Overcast
11:51 AM 35.6 °F 28.0 °F 30.2 °F 81% 30.25 in 5.0 mi East 10.4 mph - 0.00 in Snow Light Snow
11:53 AM 37.0 °F 29.3 °F 30.0 °F 76% 30.29 in 5.0 mi ENE 11.5 mph - 0.00 in Snow Light Snow
12:06 PM 35.6 °F 28.0 °F 28.4 °F 75% 30.24 in 9.0 mi ENE 10.4 mph - 0.00 in   Overcast
12:51 PM 37.4 °F 29.8 °F 30.2 °F 75% 30.21 in 5.0 mi ENE 11.5 mph - 0.00 in Snow Light Snow
12:53 PM 37.0 °F 29.3 °F 30.0 °F 76% 30.24 in 5.0 mi ENE 11.5 mph - 0.00 in Snow Light Snow
1:53 PM 41.0 °F 35.2 °F 28.9 °F 62% 30.20 in 10.0 mi ENE 9.2 mph - 0.00 in   Overcast
2:53 PM 41.0 °F 35.2 °F 26.1 °F 55% 30.19 in 10.0 mi ENE 9.2 mph 20.7 mph N/A   Partly Cloudy
3:53 PM 43.0 °F 38.2 °F 24.1 °F 47% 30.17 in 10.0 mi ENE 8.1 mph - N/A   Mostly Cloudy
4:53 PM 41.0 °F 34.7 °F 24.1 °F 51% 30.16 in 10.0 mi East 10.4 mph - N/A   Scattered Clouds
5:53 PM 37.9 °F 30.0 °F 24.1 °F 57% 30.16 in 10.0 mi ENE 12.7 mph - N/A   Mostly Cloudy
6:53 PM 37.0 °F 27.7 °F 26.1 °F 65% 30.16 in 10.0 mi ENE 16.1 mph 20.7 mph N/A   Overcast
7:53 PM 37.0 °F 29.8 °F 26.1 °F 65% 30.17 in 10.0 mi ENE 10.4 mph - N/A   Overcast
8:53 PM 37.0 °F 29.8 °F 27.0 °F 67% 30.17 in 10.0 mi ENE 10.4 mph - N/A   Overcast
9:53 PM 37.0 °F 28.1 °F 26.1 °F 65% 30.15 in 10.0 mi East 15.0 mph - N/A   Overcast
10:53 PM 37.0 °F 28.9 °F 27.0 °F 67% 30.13 in 10.0 mi East 12.7 mph - 0.00 in Snow Light Snow
11:41 PM 33.8 °F 25.8 °F 30.2 °F 87% 30.10 in 3.0 mi East 10.4 mph - 0.00 in Snow Light Snow
11:53 PM 34.0 °F 25.5 °F 30.0 °F 85% 30.12 in 3.0 mi ENE 11.5 mph - 0.00 in Snow Light Snow